Powrót do katalogu

STARLINK-32726

AktywnyŁącznośćVLEO
NORAD 62446·PAYLOAD·🇺🇸 United States

Wystrzelony Dec 29, 2024 z Vandenberg Space Force Base

Loading…

Następne Przeloty (najbliższe 24 godziny)

TLE

ŚwieżeSource: CelesTrak SupGP

Epoka: Sep 14, 2026, 21:18 UTC

1 62446C 24251Q   26257.88798611 -.00032883  00000+0 -97117-3 0  2576
2 62446  53.1575 173.7274 0001292  89.4921 304.3969 15.34418995    12

Śledź STARLINK-32726 w czasie rzeczywistym z AllMySat

Download on the App Store